Location: Pl�tzky
(52.0521°N, 11.8020°E)
Time: 20:31:08
(UTC+00:00)

Meteor 1-25 Rocket - Pass Details

Date: 22 November 2019
Orbit: 836 x 892 km, 81.2° (Epoch: 10 December)

Event Time Altitude Azimuth Distance (km) Brightness Sun altitude
Rises 16:57:34 0° 348° (NNW) 3,437 7.4 -15.6°
Reaches altitude 10° 17:00:02 10° 352° (N) 2,505 6.6 -15.9°
Maximum altitude 17:05:40 61° 73° (ENE) 982 4.2 -16.8°
Drops below altitude 10° 17:11:21 10° 154° (SSE) 2,526 6.5 -17.7°
Sets 17:13:50 0° 158° (SSE) 3,467 7.3 -18.0°
